[[{"header":{"parameterUnit":"m.s-1","parameterCategory":1,"la1":30.2992,"la2":30.254,"lo1":-89.0895,"lo2":-89.0443,"dy":0.0025,"dx":0.0025,"nx":19,"ny":19,"refTime":"2026-04-20T21:00:00:Z","depth":0,"parameterNumber":2,"parameterNumberName":"U-component_of_WINDS"},"data":[0,0,0,-6.816,-6.8164,-6.83,-6.83,-6.8544,-6.8546,0,0,0,0,0,0,0,0,0,0,0,-6.8162,-6.8165,-6.816,-6.8164,-6.83,-6.83,-6.8543,-6.8546,0,0,0,0,0,0,0,0,0,0,0,-6.8161,-6.8165,-6.8168,-6.8165,-6.83,-6.83,-6.8542,-6.8415,0,0,0,0,0,0,0,0,0,0,-6.8271,-6.8315,-6.8164,-6.8169,-6.8166,-6.83,-6.83,-6.8408,-6.8423,-6.8512,0,-6.8602,0,-6.8579,-6.8567,-6.8568,0,0,0,-6.8133,-6.8303,-6.8301,-6.8169,-6.8168,-6.83,-6.823,-6.8416,-6.8433,-6.8533,-6.8605,-6.8612,-6.8583,-6.8569,-6.8571,-6.9185,-6.9189,0,0,-6.8125,-6.821,-6.8289,-6.8314,-6.8297,-6.8226,-6.8235,-6.8425,-6.851,-6.8606,-6.8617,-6.8587,-6.8571,-6.8574,-6.9181,-6.9186,0,0,0,-6.8125,-6.8206,-6.8197,-6.8306,-6.8325,-6.8231,-6.824,-6.8501,-6.8491,-6.8619,-6.859,-6.8573,-6.8577,-6.9176,-6.9183,-6.9477,0,0,0,-6.8119,-6.8205,-6.8196,-6.8249,-6.8323,-6.8415,-6.8314,-6.8478,-6.8497,-6.8588,-6.8573,-6.858,-6.9171,-6.918,-6.9458,-6.9601,0,0,0,-6.8139,-6.8207,-6.8241,-6.8253,-6.8315,-6.841,-6.841,-6.848,-6.8481,-6.8568,-6.8581,-6.9168,-6.9178,-6.9441,-6.9573,-6.9784,0,0,0,-6.8185,-6.8503,-6.8248,-6.8592,-6.8314,-6.8591,-6.8407,-6.861,-6.8721,-6.8575,-6.9172,-6.9182,-6.9436,-6.9557,-6.9767,-6.9975,-7.007,0,0,-6.8633,-6.856,-6.8756,-6.8531,-6.8874,-6.8564,-6.895,-6.8972,-6.8905,-6.9096,-6.9109,-6.9464,-6.9572,-6.9781,-7.058,-7.0656,0,0,0,-6.8926,-6.9068,-6.914,-6.9248,-6.9273,-6.9304,-6.9258,-6.9265,-6.9423,-6.902,-6.9596,-6.9658,-6.9777,-6.9872,-6.9937,-7.0032,-6.9231,-6.923,-6.9229,-6.9681,-6.9575,-6.9891,-6.9802,-6.991,-6.9858,-6.9935,-6.9936,-6.9801,-6.9939,-6.9994,-7.0491,-7.0606,-7.0654,-7.0755,-7.0097,-7.0099,-7.01,-7.01,-7.0325,-7.0507,-7.0317,-7.0554,-7.0442,-7.064,-7.0603,-7.05,-7.0668,-7.0442,-7.0541,-7.0301,-7.0741,-7.0823,-7.0121,-7.0118,-7.0115,-7.0113,-7.0112,-7.0804,-7.0872,-7.0876,-7.102,-7.1143,-7.1042,-7.1211,-7.1103,-7.1003,-7.1102,-7.1146,-7.1141,-7.1119,-7.1132,-7.1133,-7.1135,-7.1137,-7.1138,-7.1139,-7.1299,-7.1293,-7.1448,-7.15,-7.1553,-7.1611,-7.1562,-7.1612,-7.164,-7.1547,-7.1547,-7.1396,-7.0805,-7.0656,-7.1165,-7.116,-7.1157,-7.1155,-7.1153,-7.1985,-7.1812,-7.2052,-7.2106,-7.2155,-7.2283,-7.2144,-7.2255,-7.2281,-7.2368,-7.2196,-7.1777,-7.1695,-7.1642,-7.1518,-7.2219,-7.2219,-7.222,-7.222,-7.2386,-7.2334,-7.2553,-7.2646,-7.2725,-7.2623,-7.2896,-7.2862,-7.2799,-7.2808,-7.2692,-7.252,-7.2471,-7.2417,-7.2348,-7.223,-7.3097,-7.3098,-7.3098,-7.28,-7.275,-7.3003,-7.2938,-7.2969,-7.2998,-7.325,-7.3365,-7.3259,-7.3132,-7.2812,-7.2775,-7.2496,-7.2411,-7.2274,-7.2169,-7.1951,0,0]},{"header":{"parameterUnit":"m.s-1","parameterCategory":1,"la1":30.2992,"la2":30.254,"lo1":-89.0895,"lo2":-89.0443,"dy":0.0025,"dx":0.0025,"nx":19,"ny":19,"refTime":"2026-04-20T21:00:00:Z","depth":0,"parameterNumber":3,"parameterNumberName":"V-component_of_WINDS"},"data":[0,0,0,0.9713,0.9713,0.9697,0.9697,0.9716,0.9717,0,0,0,0,0,0,0,0,0,0,0,0.9739,0.974,0.9713,0.9713,0.9697,0.9697,0.9716,0.9717,0,0,0,0,0,0,0,0,0,0,0,0.9739,0.974,0.9741,0.9713,0.9697,0.9697,0.9716,0.9715,0,0,0,0,0,0,0,0,0,0,0.9723,0.9768,0.974,0.9741,0.9713,0.9697,0.9697,0.9714,0.9715,0.974,0,0.9766,0,0.9742,0.9721,0.9721,0,0,0,0.9697,0.9768,0.9744,0.9741,0.9713,0.9697,0.97,0.9714,0.9715,0.9741,0.9766,0.9766,0.9742,0.9721,0.9721,0.9916,0.9917,0,0,0.9698,0.9749,0.9743,0.9745,0.9748,0.9701,0.97,0.9714,0.9745,0.9766,0.9766,0.9743,0.9721,0.9722,0.9914,0.9916,0,0,0,0.9711,0.975,0.9724,0.9746,0.974,0.97,0.9699,0.9744,0.9732,0.9765,0.9743,0.9722,0.9722,0.9912,0.9915,1.0046,0,0,0,0.9711,0.9757,0.9726,0.9757,0.974,0.9741,0.973,0.9731,0.9731,0.9743,0.9722,0.9723,0.991,0.9914,1.0038,1.01,0,0,0,0.9733,0.976,0.9765,0.9759,0.9754,0.974,0.9728,0.973,0.9718,0.9721,0.9723,0.9909,0.9913,1.0031,1.0088,1.0167,0,0,0,0.9771,0.9881,0.9768,0.9882,0.9755,0.982,0.9727,0.9773,0.9791,0.9722,0.9911,0.9915,1.0029,1.0081,1.016,1.0242,1.0281,0,0,0.9938,0.9903,0.9966,0.9864,0.9963,0.9819,0.9937,0.9906,0.9861,0.9901,0.9905,1.0041,1.0087,1.0165,1.0479,1.051,0,0,0,1.0036,1.0083,1.0098,1.0116,1.0095,1.0083,1.0028,1.0017,1.0048,0.9891,1.0088,1.0114,1.0158,1.0195,1.0222,1.0257,0.9934,0.9933,0.9933,1.0346,1.0281,1.0382,1.0316,1.0337,1.028,1.0291,1.0266,1.0195,1.0244,1.0255,1.0453,1.0499,1.0518,1.0556,1.0293,1.0293,1.0294,1.0294,1.0585,1.0641,1.0545,1.0608,1.0541,1.0594,1.0545,1.0494,1.0535,1.0439,1.0474,1.0376,1.0555,1.0584,1.0303,1.0302,1.03,1.0299,1.0299,1.0782,1.0797,1.0781,1.0803,1.0828,1.0758,1.0802,1.0739,1.0679,1.0714,1.0721,1.0719,1.071,1.0722,1.0722,1.0723,1.0724,1.0724,1.0725,1.0992,1.0969,1.1014,1.1001,1.1006,1.1004,1.095,1.0953,1.0942,1.0892,1.0892,1.0819,1.0583,1.0526,1.0735,1.0733,1.0732,1.0731,1.073,1.1261,1.119,1.1259,1.1264,1.1245,1.1275,1.1193,1.1207,1.12,1.1225,1.1144,1.098,1.094,1.0918,1.0871,1.1156,1.1156,1.1156,1.1156,1.1428,1.1401,1.1457,1.1469,1.1474,1.1408,1.1491,1.1451,1.1398,1.1391,1.134,1.1272,1.1253,1.1224,1.1196,1.1151,1.1501,1.1501,1.1501,1.159,1.1561,1.1642,1.1588,1.1569,1.1556,1.1632,1.1652,1.1578,1.1514,1.1385,1.137,1.1258,1.1225,1.1159,1.1117,1.1032,0,0]}]]